USA 134

Last updated on Fri Dec 19 2025 00:02:48 GMT+0000 (Coordinated Universal Time)

1 25019U 97065A 25352.45697422 -.00000049 00000+0 00000+0 0 9992 2 25019 12.5681 23.0563 0006331 272.3062 204.1111 1.00270571 31148
UTC large
Height (km)
Speed (km/s)
/
Latitude / Longitude
Inclination (degrees)
Orbital Period (minutes)
Azimuth
Elevation
Range (km)
Doppler Factor

Next 0 passes for location: London (51.5072 / 0.1276)

Sorry there are no passes over London.